Torna al catalogo

STARLINK-30324

AttivoComunicazioniVLEO
NORAD 57640·PAYLOAD·🇺🇸 United States

Lanciato Aug 17, 2023 da Cape Canaveral Space Force Station

Loading…

Prossimi Passaggi (prossime 24 ore)

TLE

AggiornatoSource: CelesTrak SupGP

Epoca: Sep 14, 2026, 20:42 UTC

1 57640C 23122J   26257.86298611 -.00081728  00000+0 -29659-2 0  2572
2 57640  43.0006 104.3963 0001763 267.7469 166.3928 15.27555716    11

Traccia STARLINK-30324 in tempo reale con AllMySat

Download on the App Store